This demonstration page uses our WeatherBlox Daily Observations layout. Learn more.

Left ArrowRight Arrow

36.19886, -115.1175

Hourly Observations for December 25, 2018

Temp ( °F °C ) Dew Point ( °F °C ) Humidity (%) Winds ( mph kmh ) Pressure ( in mb ) Visibility ( mi km ) Precip ( " mm )
12:53 am 00:53 Mostly Cloudy 42 5.6 23 -5 47 47 N N/A 29.77 1008 10 16.0934 N/A
1:53 am 01:53 Mostly Cloudy 43 6.1 24 -4.4 47 47 NNW 3 6 29.77 1008 10 16.0934 N/A
2:53 am 02:53 Clear 41 5 24 -4.4 51 51 NW 6 9 29.75 1008 10 16.0934 N/A
3:53 am 03:53 Clear 43 6.1 25 -3.9 49 49 N 3 6 29.71 1006 10 16.0934 N/A
4:53 am 04:53 Partly Cloudy 44 6.7 27 -2.8 51 51 E 5 7 29.71 1006 10 16.0934 N/A
5:53 am 05:53 Cloudy with Light Rain 46 7.8 38 3.3 73 73 NNW 17 28 29.74 1007 10 16.0934 N/A
6:53 am 06:53 Cloudy 46 7.8 37 2.8 71 71 N 21 33 29.75 1008 10 16.0934 N/A
7:53 am 07:53 Cloudy with Light Rain 43 6.1 36 2.2 76 76 NNW 13 20 29.78 1009 10 16.0934 0.01 0.254
8:53 am 08:53 Cloudy 44 6.7 36 2.2 73 73 NW 10 17 29.8 1009 10 16.0934 N/A
9:53 am 09:53 Partly Cloudy 50 10 37 2.8 61 61 NW 14 22 29.79 1009 10 16.0934 N/A
10:53 am 10:53 Sunny 52 11.1 37 2.8 57 57 W 6 9 29.78 1008 10 16.0934 N/A
11:53 am 11:53 Sunny 54 12.2 35 1.7 49 49 NNW 5 7 29.75 1008 10 16.0934 N/A
12:53 pm 12:53 Mostly Sunny 56 13.3 35 1.7 46 46 NW 12 19 29.74 1007 10 16.0934 N/A
1:53 pm 13:53 Partly Cloudy 55 12.8 33 0.6 44 44 N 17 28 29.75 1007 10 16.0934 N/A
2:53 pm 14:53 Sunny 56 13.3 33 0.6 42 42 N 10 17 29.76 1008 10 16.0934 N/A
3:53 pm 15:53 Cloudy 54 12.2 34 1.1 47 47 NW 16 26 29.77 1008 10 16.0934 N/A
4:53 pm 16:53 Cloudy 53 11.7 34 1.1 48 48 NNW 10 17 29.79 1009 10 16.0934 N/A
5:53 pm 17:53 Cloudy 53 11.7 33 0.6 47 47 N 14 22 29.79 1009 10 16.0934 N/A
6:53 pm 18:53 Mostly Cloudy 52 11.1 34 1.1 50 50 NNW 12 19 29.8 1009 10 16.0934 N/A
7:53 pm 19:53 Cloudy 52 11.1 35 1.7 53 53 NW 14 22 29.81 1010 10 16.0934 N/A
8:53 pm 20:53 Cloudy 53 11.7 34 1.1 48 48 NNW 24 39 29.82 1010 10 16.0934 N/A
9:53 pm 21:53 Cloudy 52 11.1 33 0.6 49 49 NNW 16 26 29.84 1010 10 16.0934 N/A
10:53 pm 22:53 Cloudy 52 11.1 30 -1.1 43 43 NNW 23 37 29.85 1011 10 16.0934 N/A
11:53 pm 23:53 Partly Cloudy 52 11.1 28 -2.2 40 40 NNW 20 31 29.87 1012 10 16.0934 N/A

Powered by AerisWeather